Regional Weather Roundup
Issued by NWS Cleveland, OH

Home | Current Version | Previous Version | Graphics & Text | Print | Product List | Glossary On
Versions: 1 2 3 4 5 6 7 8 9 10 11 12 13 14 15 16 17 18 19 20 21 22 23 24 25 26 27 28 29 30 31 32 33 34 35 36 37 38 39 40 41 42 43 44 45 46 47 48 49 50
000
ASUS41 KCLE 271010
RWRCLE
OHIO REGIONAL WEATHER ROUNDUP
NATIONAL WEATHER SERVICE WILMINGTON, OH
600 AM EDT FRI MAY 27 2016

NOTE: "FAIR" INDICATES FEW OR NO CLOUDS BELOW 12,000 FEET WITH NO
SIGNIFICANT WEATHER AND/OR OBSTRUCTIONS TO VISIBILITY.

OHZ001>008-015>018-024>027-034-035-043-044-271100-
   NORTHWEST OHIO

CITY           SKY/WX    TMP DP  RH WIND       PRES   REMARKS
DEFIANCE       FAIR      63  59  87 S5        29.98S
FINDLAY        FAIR      63  58  83 S6        29.99S
TOLEDO EXPRESS FAIR      63  61  93 S3        29.98S
TOLEDO EXEC    FAIR      65  60  84 S5        29.99S
LIMA           FAIR      63  61  93 S8        30.00S
$$

OHZ009>014-019>023-028>033-038-089-271100-
   NORTHEAST OHIO

CITY           SKY/WX    TMP DP  RH WIND       PRES   REMARKS
CLE-HOPKINS    FAIR      69  63  81 SW9       30.02R
CLE-LAKEFRONT  FAIR      71  63  75 S13       29.99R
CUY CO. ARPT   NOT AVBL
LORAIN-ELYRIA  FAIR      63  58  83 SW5       30.01R
ASHTABULA      FAIR      67  65  93 S7        30.01S
AKRON-CANTON   FAIR      66  63  90 SW6       30.04R FOG
WOOSTER        FAIR      65  63  93 S8        30.04R
MANSFIELD      FAIR      63  62  97 S7        30.03S
YOUNGSTOWN     MOCLDY    66  64  93 S6        30.03S
$$

OHZ042-051>053-060>062-070>072-077>081-271100-
  SOUTHWEST OHIO

CITY           SKY/WX    TMP DP  RH WIND       PRES   REMARKS
CINC-COVINGTON MOCLDY    61  61 100 CALM      30.03S
CINC-LUNKEN    FOG       61  61 100 CALM      30.04S VSB 1/4
HAMILTON       FAIR      64  62  93 CALM      30.04S
DAYTON         FAIR      64  62  93 S8        30.04R
WRIGHT-PAT AFB FAIR      62  62 100 SE5       30.03R
DAYTON GENERAL FAIR      62  60  93 S8        30.03S
WILMINGTON     FAIR      62  61  96 S6        30.04S
$$

OHZ036-037-039>041-045>050-054>059-063>069-073>076-082>088-271100-
  CENTRAL AND SOUTHEAST OHIO

CITY           SKY/WX    TMP DP  RH WIND       PRES   REMARKS
COLUMBUS       MOCLDY    65  61  87 CALM      30.03F
OSU AIRPORT    FAIR      65  62  90 S7        30.03S
BOLTON FIELD   FAIR      63  62  97 S5        30.04S
RICKENBACK AFB FAIR      64  61  90 S5        30.03S
NEWARK         FAIR      64  61  90 CALM      30.04S
MARION         FAIR      64  61  90 S7        30.03S
LANCASTER      FAIR      65  60  84 SE3       30.04F
ZANESVILLE     FAIR      66  63  90 CALM      30.05S
NEW PHILLY     MOCLDY    67  63  87 SE5       30.05R
$$




USA.gov is the U.S. government's official web portal to all federal, state and local government web resources and services.